Tracking 30308 objects as of 19-Apr-2025
HD Live streaming from Space Station
objects crossing your sky now

IRIDIUM 33 DEB

Track IRIDIUM 33 DEB now!
10-day predictions


NORAD ID: 33867
Int'l Code: 1997-051AL
Perigee: 560.5 km
Apogee: 582.8 km
Inclination: 86.4 °
Period: 95.9 minutes
Semi major axis: 6942 km
RCS: 0.1307 m2 (medium)
Launch date: September 14, 1997
Source: United States (US)
Launch site: TYURATAM MISSILE AND SPACE COMPLEX (TTMTR)

Note: This is SATELLITE DEBRIS
Your satellite tracking list
Your tracking list is empty




NASA's NSSDC Master Catalog

Two Line Element Set (TLE):
1 33867U 97051AL  25109.03285787  .00038456  00000-0  30083-2 0  9998
2 33867  86.3795 104.3832 0016084 162.0883 198.0920 15.00783167859127
Source of the keplerian elements: AFSPC